Tracking 29892 objects as of 21-Nov-2024
HD Live streaming from Space Station
objects crossing your sky now

STARLINK-3347

Track STARLINK-3347 now!
10-day predictions
STARLINK-3347 is classified as:


NORAD ID: 50811
Int'l Code: 2022-001J
Perigee: 448.1 km
Apogee: 449.9 km
Inclination: 53.2 °
Period: 93.4 minutes
Semi major axis: 6820 km
RCS: Unknown
Launch date: January 6, 2022
Source: United States (US)
Launch site: AIR FORCE EASTERN TEST RANGE (AFETR)
Your satellite tracking list
Your tracking list is empty




NASA's NSSDC Master Catalog

Two Line Element Set (TLE):
1 50811U 22001J   24326.16667824  .01221065  00000-0  26049-1 0  9996
2 50811  53.2156 123.1952 0001311  74.5082 346.9378 15.41433167160365
Source of the keplerian elements: AFSPC